Tracking 29932 objects as of 4-Dec-2024
HD Live streaming from Space Station
objects crossing your sky now

MIRANDA (X-4)

Track MIRANDA (X-4) now!
10-day predictions
MIRANDA (X-4) is classified as:


NORAD ID: 7213
Int'l Code: 1974-013A
Perigee: 668.1 km
Apogee: 828.8 km
Inclination: 97.9 °
Period: 99.6 minutes
Semi major axis: 7119 km
RCS: 0.7069 m2 (medium)
Launch date: March 9, 1974
Source: United Kingdom (UK)
Launch site: AIR FORCE WESTERN TEST RANGE (AFWTR)
Your satellite tracking list
Your tracking list is empty




NASA's NSSDC Master Catalog

Two Line Element Set (TLE):
1 07213U 74013A   24338.65692346  .00001820  00000-0  49191-3 0  9997
2 07213  97.8752 225.2940 0112837 263.6729  95.1603 14.45207895638640
Source of the keplerian elements: AFSPC